Time,TemperatureC,DewpointC,PressurehPa,WindDirection,WindDirectionDegrees,WindSpeedKMH,WindSpeedGustKMH,Humidity,HourlyPrecipMM,Conditions,Clouds,dailyrainMM,SolarRadiationWatts/m^2,UVIndex,SoftwareType,DateUTC
2020-08-13 14:04:00,21.4,,1006.1,NW,314,4.7,13,87,0.0,,,0.0,0,0,n/a,2020-08-13T21:04:00Z
2020-08-13 14:09:04,21.6,,1006.1,NW,326,7,13,87.6,0.0,,,0.0,0,0,n/a,2020-08-13T21:09:04Z
2020-08-13 14:14:04,21.6,,1005.8,NNW,330,10.3,16.3,88,0.0,,,0.0,0,0,n/a,2020-08-13T21:14:04Z
2020-08-13 14:19:04,21.4,,1005.8,NW,323,9.3,16.3,88.4,0.0,,,0.0,0,0,n/a,2020-08-13T21:19:04Z
2020-08-13 14:24:04,21.3,,1005.8,NW,320,4.8,16.3,89,0.0,,,0.0,0,0,n/a,2020-08-13T21:24:04Z
2020-08-13 14:29:04,21.2,,1005.8,NW,322,7.7,14.3,89,0.0,,,0.0,0,0,n/a,2020-08-13T21:29:04Z
2020-08-13 14:34:04,21,,1005.8,NW,309,8.2,14.3,89,0.0,,,0.0,0,0,n/a,2020-08-13T21:34:04Z
2020-08-13 14:39:08,20.8,,1005.8,NW,319,6.3,14.3,89,0.0,,,0.0,0,0,n/a,2020-08-13T21:39:08Z
2020-08-13 14:44:12,20.9,,1005.8,WNW,295,6.3,16.3,88.6,0.0,,,0.0,0,0,n/a,2020-08-13T21:44:12Z
2020-08-13 14:49:12,20.8,,1005.8,WNW,290,8,16.3,88,0.0,,,0.0,0,0,n/a,2020-08-13T21:49:12Z
2020-08-13 14:54:16,20.9,,1005.8,NW,317,9,14.3,88,0.0,,,0.0,0,0,n/a,2020-08-13T21:54:16Z
2020-08-13 14:59:16,21,,1005.8,NW,313,9.9,14.3,87,0.0,,,0.0,0,0,n/a,2020-08-13T21:59:16Z
2020-08-13 15:04:20,21.1,,1005.8,NW,325,9.2,14.3,87,0.0,,,0.0,0,0,n/a,2020-08-13T22:04:20Z
2020-08-13 15:09:20,21.1,,1005.8,NW,309,7.3,14.3,87,0.0,,,0.0,0,0,n/a,2020-08-13T22:09:20Z
2020-08-13 15:14:20,21,,1005.8,NW,314,8.6,13,87,0.0,,,0.0,0,0,n/a,2020-08-13T22:14:20Z
2020-08-13 15:19:20,20.9,,1005.8,NW,319,8.6,14.3,87,0.0,,,0.0,0,0,n/a,2020-08-13T22:19:20Z
2020-08-13 15:24:20,20.9,,1005.8,NW,326,10.7,17.7,87.4,0.0,,,0.0,0,0,n/a,2020-08-13T22:24:20Z
2020-08-13 15:29:20,20.9,,1005.8,NNW,331,11.2,16.3,88,0.0,,,0.0,0,0,n/a,2020-08-13T22:29:20Z
2020-08-13 15:34:20,20.8,,1005.4,NNW,335,12.2,17.7,89,0.0,,,0.0,0,0,n/a,2020-08-13T22:34:20Z
2020-08-13 15:39:20,20.7,,1005.4,NW,324,12.5,19.5,89.6,0.0,,,0.0,0,0,n/a,2020-08-13T22:39:20Z
2020-08-13 15:44:24,20.7,,1005.4,NW,312,9.7,20.9,90.2,0.0,,,0.0,0,0,n/a,2020-08-13T22:44:24Z
2020-08-13 15:49:24,20.6,,1005.4,WNW,300,9.4,19.5,91,0.0,,,0.0,0,0,n/a,2020-08-13T22:49:24Z
2020-08-13 15:54:24,20.5,,1005.4,NNW,328,11.7,17.7,91,0.0,,,0.0,0,0,n/a,2020-08-13T22:54:24Z
2020-08-13 15:59:24,20.4,,1005.4,NNW,333,7.7,16.3,91.2,0.0,,,0.0,0,0,n/a,2020-08-13T22:59:24Z
2020-08-13 16:04:24,20.3,,1005.4,NNW,335,8.4,17.7,92,0.0,,,0.0,0,0,n/a,2020-08-13T23:04:24Z
2020-08-13 16:09:24,20.3,,1005.4,NW,318,13.9,19.5,92,0.0,,,0.0,0,0,n/a,2020-08-13T23:09:24Z
2020-08-13 16:14:24,20.3,,1005.4,NW,310,12.5,19.5,92,0.0,,,0.0,0,0,n/a,2020-08-13T23:14:24Z
2020-08-13 16:19:24,20.3,,1005.4,WNW,302,9.9,19.5,92,0.0,,,0.0,0,0,n/a,2020-08-13T23:19:24Z
2020-08-13 16:24:24,20.2,,1005.4,NNW,338,10.7,17.7,92,0.0,,,0.0,0,0,n/a,2020-08-13T23:24:24Z
2020-08-13 16:29:24,20.2,,1005.1,NNW,334,12.9,20.9,92.2,0.0,,,0.0,0,0,n/a,2020-08-13T23:29:24Z
2020-08-13 16:34:24,20.2,,1005.1,NNW,334,13.2,20.9,93,0.0,,,0.0,0,0,n/a,2020-08-13T23:34:24Z
2020-08-13 16:39:28,20.2,,1005.1,NW,316,17.1,22.7,93,0.0,,,0.0,0,0,n/a,2020-08-13T23:39:28Z
2020-08-13 16:44:32,20.2,,1005.1,NW,325,17.1,20.9,93,0.0,,,0.0,0,0,n/a,2020-08-13T23:44:32Z
2020-08-13 16:49:32,20.1,,1005.1,NW,317,15.8,24.1,93,0.0,,,0.0,0,0,n/a,2020-08-13T23:49:32Z
2020-08-13 16:54:32,20.1,,1005.1,NNW,336,15.5,24.1,93,0.0,,,0.0,0,0,n/a,2020-08-13T23:54:32Z
2020-08-13 16:59:32,20.1,,1005.1,NW,305,17.8,22.7,93,0.0,,,0.0,0,0,n/a,2020-08-13T23:59:32Z
2020-08-13 17:04:32,20.1,,1005.1,NW,326,12.9,20.9,94,0.0,,,0.0,0,0,n/a,2020-08-14T00:04:32Z
2020-08-13 17:09:32,20.1,,1004.7,NW,314,14.2,22.7,94,0.0,,,0.0,0,0,n/a,2020-08-14T00:09:32Z
2020-08-13 17:14:32,20,,1004.7,NW,321,18.1,27.4,94,0.0,,,0.0,0,0,n/a,2020-08-14T00:14:32Z
2020-08-13 17:19:32,20,,1004.7,WNW,303,14.2,20.9,94,0.0,,,0.0,0,0,n/a,2020-08-14T00:19:32Z
2020-08-13 17:24:32,19.9,,1004.7,NW,315,17.3,20.9,93.8,0.0,,,0.0,0,0,n/a,2020-08-14T00:24:32Z
2020-08-13 17:29:32,19.9,,1004.7,NW,324,15.4,20.9,94,0.0,,,0.0,0,0,n/a,2020-08-14T00:29:32Z
2020-08-13 17:34:32,19.9,,1004.7,NW,321,14.2,20.9,94,0.0,,,0.0,0,0,n/a,2020-08-14T00:34:32Z
2020-08-13 17:39:32,19.9,,1004.7,NW,316,14.8,24.1,94,0.0,,,0.0,0,0,n/a,2020-08-14T00:39:32Z
2020-08-13 17:44:32,19.9,,1004.7,NW,316,13.6,24.1,94,0.0,,,0.0,0,0,n/a,2020-08-14T00:44:32Z
2020-08-13 17:49:36,19.9,,1004.7,NW,321,13.1,24.1,94,0.0,,,0.0,0,0,n/a,2020-08-14T00:49:36Z
2020-08-13 17:54:36,19.9,,1004.7,NNW,328,16.4,22.7,94,0.0,,,0.0,0,0,n/a,2020-08-14T00:54:36Z
2020-08-13 17:59:36,19.9,,1004.7,NW,313,15.8,22.7,94,0.0,,,0.0,0,0,n/a,2020-08-14T00:59:36Z
2020-08-13 18:04:40,19.9,,1004.7,NW,323,17.4,24.1,94,0.0,,,0.0,0,0,n/a,2020-08-14T01:04:40Z
2020-08-13 18:09:40,19.9,,1004.7,NW,318,12.6,19.5,94,0.0,,,0.0,0,0,n/a,2020-08-14T01:09:40Z
2020-08-13 18:14:40,19.9,,1005.1,NW,314,13.6,20.9,94,0.0,,,0.0,0,0,n/a,2020-08-14T01:14:40Z
2020-08-13 18:19:44,19.8,,1004.7,NW,311,15.2,20.9,94,0.0,,,0.0,0,0,n/a,2020-08-14T01:19:44Z